www.pogodaiklimat.ru

Погода и климат >> Архив погоды >> Хорватия >> Макарска


ПОГОДА в Макарска

  • Прогноз погоды в Макарска
  • Монитор погоды в Макарска

АРХИВ ПОГОДЫ в Макарска

Время (UTC), дата Ветер
(напр.,м/с)
 
Видим.   Явления Облачность Т
(С)
Тd
(С)
f
(%)
Тe
(С)
Тes
(С)
Комфортность P
(гПа)
Po
(гПа)
Тmin
(С)
Tmax
(С)
R
(мм)
R24
(мм)
S
(см)
03 13.08 С 1 н/о н/о +26.0 +19.7 68 +32 +32 очень
душно
1008.5 1002.9
04 13.08 ЮВ 2 н/о н/о +26.1 +20.0 69 +32 +32 очень
душно
1008.6 1003.0
05 13.08 С 2 н/о н/о +25.6 +19.3 68 +31 +31 очень
душно
1009.2 1003.6
06 13.08 СВ 1 18 км ясно +27.8 +20.9 66 +35 +38 очень
душно
1008.9 1003.3 +25.6
07 13.08 СВ 1 18 км ясно +29.8 +22.1 63 +38 +46 очень
душно
1009.0 1003.4
08 13.08 ЮЗ 1 17 км 1/1 1500 м
[Cu hum]
+29.0 +22.6 68 +38 +49 очень
душно
1009.4 1003.8
09 13.08 ЮЗ 2 17 км 1/1 1500 м
[Cu hum]
+30.0 +24.8 74 +43 +55 опасность
перегрева
1009.1 1003.6
10 13.08 ЮЗ 2 16 км 1/1 1500 м
[Cu hum]
+29.8 +24.3 72 +42 +56 опасность
перегрева
1008.9 1003.4
11 13.08 Ю 1 15 км 1/1 1500 м
[Cu hum]
+33.0 +19.7 46 +39 +57 опасность
солнечного
удара
1008.6 1003.1
12 13.08 ЮЗ 2 15 км 1/1 1500 м
[Cu hum]
+30.6 +23.4 65 +41 +55 опасность
перегрева
1008.4 1002.9
13 13.08 Ю 2 14 км 3/1 1500 м
[Cu hum Ci fib]
+32.2 +23.4 60 +43 +54 опасность
перегрева
1008.0 1002.5
14 13.08 Ю 2 н/о н/о +32.8 +22.3 54 +42 +42 опасность
перегрева
1007.8 1002.3
15 13.08 Ю 1 н/о н/о +34.2 +15.7 33 +36 +36 душно 1007.5 1002.0
16 13.08 Ю 2 н/о н/о +31.6 +23.8 63 +43 +43 опасность
перегрева
1007.5 1002.0
17 13.08 Ю 2 н/о н/о +29.7 +24.6 74 +42 +42 опасность
перегрева
1007.2 1001.7
18 13.08 В 2 15 км 9/0
[Ac As Cs]
+29.0 +23.2 71 +39 +39 очень
душно
1007.2 1001.6 +34.1
19 13.08 Ю 1 16 км 10/0
[Ac As Cs]
+29.6 +18.4 51 +34 +34 очень
душно
1007.3 1001.7
20 13.08 ЮВ 2 16 км 9/0
[Ac As Cs]
+27.5 +25.1 87 +40 +40 очень
душно
1007.2 1001.6
21 13.08 В 2 н/о н/о +27.3 +21.7 72 +35 +35 очень
душно
1006.8 1001.2
00 14.08 В 1 н/о н/о +27.9 +18.1 55 +32 +32 душно 1006.6 1001.0
03 14.08 Ю 2 н/о н/о +27.9 +18.9 58 +33 +33 очень
душно
1006.1 1000.5
04 14.08 СЗ 2 н/о н/о +26.5 +22.4 78 +35 +35 очень
душно
1006.9 1001.3
05 14.08 СВ 2 н/о н/о +26.9 +20.3 67 +33 +33 очень
душно
1007.5 1001.9
06 14.08 В 2 8000 м гроза без осадков {ливн. осадки} 10/6 1500 м
[Cb cap As op]
+25.9 +18.6 64 +31 +31 очень
душно
1007.5 1001.9 +25.3 1
07 14.08 СВ 3 12 км в посл. час гроза {ливн. осадки} 10/4 1500 м
[Cb cap Ac cast]
+23.6 +20.2 81 +29 +30 душно 1007.6 1001.9
08 14.08 СВ 1 17 км 9/5 1500 м
[Cu Sc Ac As]
+26.0 +21.3 75 +33 +35 очень
душно
1007.7 1002.1
09 14.08 ЮВ 2 20 км {гроза, ливн. осадки} 10/1 1500 м
[Cu Sc Ac As]
+26.9 +21.8 74 +35 +38 очень
душно
1008.8 1003.2
10 14.08 ЮЗ 1 25 км 10/3 600 м
[Cu Sc Ac As]
+27.0 +20.7 68 +34 +38 очень
душно
1009.1 1003.5
11 14.08 ЮЗ 1 20 км 9/1 600 м
[Cu Sc Ac As]
+27.8 +21.1 67 +35 +42 очень
душно
1009.5 1003.9
12 14.08 ЮЗ 1 20 км 8/1 1000 м
[Cu med, cong As op Ci sp]
+28.0 +19.4 60 +34 +44 очень
душно
1009.2 1003.6
13 14.08 З 2 20 км 3/1 1500 м
[Cu med, cong Ci sp]
+30.2 +20.5 56 +37 +48 очень
душно
1009.1 1003.6
14 14.08 ЮЗ 2 н/о н/о +29.8 +17.3 47 +34 +34 очень
душно
1009.4 1003.8
15 14.08 ЮЗ 2 н/о н/о +29.6 +17.8 49 +34 +34 очень
душно
1009.3 1003.7
16 14.08 ЮЗ 2 н/о н/о +28.5 +18.4 54 +33 +33 очень
душно
1009.2 1003.6
17 14.08 СВ 4 н/о н/о +27.5 +13.1 41 +29 +29 жарко 1009.3 1003.7
18 14.08 СВ 6 25 км 9/0
[Ac lent Ci sp]
+26.9 +13.2 43 +29 +29 жарко 1009.3 1003.7 +30.2 1
19 14.08 СВ 6 25 км 8/0
[Ci sp]
+26.2 +12.7 43 +28 +28 жарко 1010.0 1004.4
20 14.08 СВ 6 25 км 6/0
[Cs]
+25.9 +12.3 43 +27 +27 жарко 1010.3 1004.6
21 14.08 СВ 5 н/о н/о +25.7 +10.0 37 +26 +26 жарко 1010.9 1005.3
00 15.08 В 1 н/о н/о +24.1 +9.3 39 +25 +25 комфорт 1011.7 1006.0
03 15.08 Ю 1 н/о н/о +22.5 +9.4 43 +24 +24 комфорт 1011.7 1006.0
04 15.08 ЮЗ 1 н/о н/о +22.9 +8.6 40 +24 +24 комфорт 1011.8 1006.1
05 15.08 СВ 1 н/о н/о +21.9 +8.5 42 +23 +23 комфорт 1012.3 1006.6
06 15.08 В 1 40 км ясно +24.5 +9.5 39 +25 +29 комфорт 1012.2 1006.5 +22.3
07 15.08 СЗ 1 40 км ясно +26.0 +11.6 41 +27 +35 жарко 1012.5 1006.8
08 15.08 ЮЗ 3 40 км ясно +26.8 +13.4 44 +29 +37 жарко 1012.4 1006.8
09 15.08 З 2 40 км ясно +27.5 +12.1 38 +29 +42 жарко 1012.4 1006.8
10 15.08 ЮЗ 3 40 км ясно +27.6 +13.1 41 +29 +43 жарко 1012.2 1006.6
11 15.08 ЮЗ 2 30 км ясно +27.2 +12.4 40 +29 +45 жарко 1011.9 1006.3
12 15.08 Ю 2 30 км ясно +28.6 +11.8 35 +29 +45 жарко 1011.6 1006.0
13 15.08 ЮЗ 4 20 км ясно +29.9 +15.0 40 +32 +41 жарко 1011.6 1006.0
14 15.08 ЮЗ 2 н/о н/о +28.8 +10.5 32 +29 +29 жарко 1011.6 1006.0
15 15.08 ЮЗ 2 н/о н/о +29.2 +12.2 35 +30 +30 жарко 1011.8 1006.2
16 15.08 СЗ 3 н/о н/о +28.4 +12.4 37 +30 +30 жарко 1011.5 1005.9
17 15.08 СЗ 4 н/о н/о +26.7 +13.5 44 +29 +29 жарко 1011.6 1006.0
18 15.08 В 1 20 км 1/0
[Cc]
+25.0 +16.4 59 +28 +28 жарко 1011.7 1006.0 +30.3
19 15.08 СВ 1 20 км ясно +25.3 +14.4 51 +28 +28 жарко 1012.0 1006.3
20 15.08 С 1 20 км ясно +24.5 +15.5 57 +27 +27 жарко 1012.1 1006.4
21 15.08 В 1 н/о н/о +23.4 +15.5 61 +28 +28 душно 1012.8 1007.1
00 16.08 ЮВ 1 н/о н/о +22.0 +15.7 67 +26 +26 душно 1012.7 1007.0
03 16.08 ЮВ 2 н/о н/о +21.6 +14.1 62 +24 +24 комфорт 1012.6 1006.9
04 16.08 ЮВ 2 н/о н/о +21.7 +14.4 63 +25 +25 комфорт 1013.0 1007.3
05 16.08 В 2 н/о н/о +21.3 +14.5 65 +24 +24 комфорт 1013.4 1007.7
06 16.08 В 1 25 км ясно +23.9 +16.0 61 +27 +31 жарко 1013.4 1007.7 +21.1
07 16.08 СВ 2 25 км 1/0
[Ac trans]
+25.0 +15.3 55 +28 +34 жарко 1013.6 1007.9
08 16.08 ЮЗ 2 25 км 1/0
[Ac trans]
+25.2 +15.9 56 +28 +38 жарко 1013.7 1008.0
09 16.08 З 2 25 км 1/1 1000 м
[St Ac trans]
+27.2 +16.2 51 +31 +43 душно 1013.8 1008.2
10 16.08 ЮЗ 2 25 км 1/1 1500 м
[Cu hum Ci sp]
+27.6 +13.7 42 +29 +44 жарко 1014.0 1008.4
11 16.08 ЮЗ 2 20 км 1/1 1500 м
[Cu hum Ci sp]
+27.1 +13.6 43 +29 +44 жарко 1013.7 1008.1
12 16.08 Ю 2 20 км 1/1 1500 м
[Cu hum Ci sp]
+28.1 +12.1 37 +29 +43 жарко 1013.6 1008.0
13 16.08 ЮЗ 2 20 км 1/1 1500 м
[Cu hum Ci sp]
+28.6 +11.7 35 +29 +41 жарко 1013.3 1007.7
14 16.08 ЮЗ 1 н/о н/о +28.5 +10.3 32 +29 +29 жарко 1013.4 1007.8
15 16.08 ЮЗ 1 н/о н/о +28.4 +12.8 38 +30 +30 жарко 1013.3 1007.7
16 16.08 СЗ 4 н/о н/о +27.6 +11.3 36 +28 +28 жарко 1013.0 1007.4
17 16.08 СЗ 3 н/о н/о +25.9 +12.4 43 +27 +27 жарко 1013.2 1007.5
18 16.08 С 2 20 км 1/0
[Ci sp]
+25.0 +13.5 49 +27 +27 жарко 1013.3 1007.6 +29.4
19 16.08 СЗ 1 20 км 1/0
[Ci fib]
+25.8 +13.9 48 +28 +28 жарко 1013.6 1007.9
20 16.08 ЮВ 2 20 км ясно +25.6 +11.0 40 +27 +27 жарко 1014.1 1008.4
21 16.08 Ю 1 н/о н/о +24.7 +11.0 42 +26 +26 жарко 1014.7 1009.0
00 17.08 В 3 н/о н/о +22.8 +13.6 56 +26 +26 жарко 1014.9 1009.2
03 17.08 В 3 н/о н/о +21.8 +13.5 59 +25 +25 комфорт 1015.1 1009.4
04 17.08 ЮВ 2 н/о н/о +22.2 +13.6 58 +25 +25 комфорт 1015.4 1009.7
05 17.08 В 2 н/о н/о +21.7 +12.9 57 +24 +24 комфорт 1015.6 1009.9
06 17.08 ЮВ 2 25 км 1/0
[Ci sp]
+24.3 +15.0 56 +27 +30 жарко 1015.6 1009.9 +21.5
07 17.08 ЮЗ 1 25 км 1/0
[Ci sp]
+24.7 +15.9 58 +28 +35 душно 1016.1 1010.4
08 17.08 ЮЗ 2 25 км 1/0
[Ci fib]
+25.3 +15.5 55 +28 +38 жарко 1016.3 1010.6
09 17.08 ЮЗ 2 23 км 1/1 1500 м
[Cu hum Ci fib]
+25.8 +15.2 52 +29 +41 душно 1016.4 1010.7
10 17.08 Ю 2 23 км 8/1 1500 м
[Cu hum Ci fib]
+27.0 +16.0 51 +30 +42 душно 1016.2 1010.5
11 17.08 Ю 2 20 км 8/1 1000 м
[Cu hum Ci sp]
+27.8 +14.7 45 +30 +43 жарко 1015.6 1010.0
12 17.08 ЮЗ 1 20 км 6/1 1500 м
[Cu hum Ci sp]
+26.8 +12.2 40 +28 +42 жарко 1015.6 1009.9
13 17.08 ЮЗ 2 18 км 6/1 1500 м
[Cu hum Ci sp]
+28.7 +11.7 35 +30 +40 жарко 1015.2 1009.6
14 17.08 З 1 н/о н/о +29.0 +12.5 36 +30 +30 жарко 1015.7 1010.1
15 17.08 СЗ 3 н/о н/о +28.9 +14.4 41 +31 +31 жарко 1015.4 1009.8
16 17.08 З 2 н/о н/о +28.7 +15.0 43 +31 +31 жарко 1015.6 1010.0
17 17.08 ЮЗ 2 н/о н/о +26.4 +15.8 52 +30 +30 душно 1015.4 1009.7
18 17.08 В 2 20 км 4/0
[Ci sp]
+24.7 +16.4 60 +28 +28 душно 1014.7 1009.0 +29.2
19 17.08 В 1 20 км 3/0
[Ci fib]
+23.9 +15.3 59 +27 +27 жарко 1015.0 1009.3
20 17.08 СЗ 2 20 км 8/0
[Cs]
+24.4 +15.2 56 +27 +27 жарко 1015.1 1009.4
21 17.08 С 1 н/о н/о +23.7 +15.5 60 +27 +27 жарко 1015.6 1009.9
00 18.08 Ю 1 н/о н/о +22.4 +16.3 68 +27 +27 душно 1015.4 1009.7
03 18.08 ЮВ 1 н/о н/о +21.6 +17.1 76 +26 +26 душно 1015.6 1009.9
04 18.08 В 1 н/о н/о +21.2 +17.1 77 +25 +25 комфорт 1015.8 1010.0
05 18.08 ЮВ 1 н/о н/о +21.2 +16.9 76 +25 +25 комфорт 1015.9 1010.1
06 18.08 СВ 1 40 км ясно +24.2 +18.0 68 +28 +32 душно 1015.5 1009.8 +21.2
07 18.08 Ю 2 40 км ясно +25.0 +18.3 66 +29 +35 душно 1015.5 1009.8
08 18.08 Ю 2 35 км ясно +25.8 +19.5 68 +31 +41 очень
душно
1015.7 1010.0
09 18.08 Ю 2 30 км ясно +26.6 +19.7 66 +32 +46 очень
душно
1015.8 1010.1
10 18.08 Ю 2 30 км 1/0
[Ci fib]
+28.4 +17.7 52 +33 +48 очень
душно
1015.7 1010.1
11 18.08 Ю 2 20 км 1/0
[Ci fib]
+29.6 +18.1 50 +34 +50 очень
душно
1015.6 1010.0
12 18.08 Ю 2 н/о н/о +28.7 +17.9 52 +33 +33 очень
душно
1015.9 1010.3
13 18.08 Ю 2 20 км 3/0
[Ci fib]
+30.3 +14.3 38 +32 +44 жарко 1015.4 1009.8
14 18.08 ЮЗ 2 н/о н/о +31.4 +15.9 39 +34 +34 душно 1015.6 1010.0
15 18.08 СЗ 1 н/о н/о +30.1 +13.9 37 +32 +32 жарко 1015.7 1010.1
16 18.08 З 1 н/о н/о +30.0 +16.5 44 +33 +33 душно 1015.4 1009.8
17 18.08 СЗ 1 н/о н/о +27.5 +15.3 47 +30 +30 жарко 1015.2 1009.6
18 18.08 СЗ 1 30 км 1/0
[Ci fib]
+25.8 +16.3 56 +29 +29 душно 1014.8 1009.1 +31.5
19 18.08 Ю 1 30 км ясно +25.0 +18.3 66 +29 +29 душно 1014.9 1009.2
20 18.08 ЮВ 1 30 км 1/0
[Ci fib]
+25.0 +17.1 62 +29 +29 душно 1015.0 1009.3
21 18.08 СВ 1 н/о н/о +23.6 +15.2 59 +26 +26 жарко 1015.5 1009.8
00 19.08 штиль 0 н/о н/о +23.0 +14.4 58 +27 +27 душно 1015.6 1009.9
03 19.08 ЮВ 1 н/о н/о +22.2 +16.8 71 +27 +27 душно 1015.5 1009.8
04 19.08 ЮВ 2 н/о н/о +22.2 +18.3 79 +27 +27 душно 1015.6 1009.9
05 19.08 штиль 0 н/о н/о +22.0 +18.5 81 +27 +27 душно 1016.0 1010.3
06 19.08 Ю 1 40 км ясно +24.3 +19.4 74 +29 +33 душно 1015.8 1010.1 +21.9
07 19.08 Ю 1 40 км ясно +25.3 +19.2 69 +30 +37 душно 1015.8 1010.1
08 19.08 Ю 2 40 км ясно +26.4 +19.3 65 +32 +41 очень
душно
1015.8 1010.1
09 19.08 Ю 2 40 км ясно +27.8 +18.5 57 +33 +46 очень
душно
1015.7 1010.1
10 19.08 Ю 2 40 км ясно +28.4 +18.7 56 +34 +49 очень
душно
1015.7 1010.1
11 19.08 Ю 2 30 км ясно +29.4 +16.7 46 +33 +49 душно 1015.9 1010.3
12 19.08 ЮЗ 2 30 км ясно +29.8 +19.0 52 +35 +50 очень
душно
1015.8 1010.2
13 19.08 Ю 2 30 км ясно +30.2 +19.5 53 +36 +48 очень
душно
1015.7 1010.1
14 19.08 ЮЗ 2 н/о н/о +31.4 +19.5 49 +37 +37 очень
душно
1015.9 1010.3
15 19.08 З 1 н/о н/о +31.4 +18.1 45 +36 +36 очень
душно
1016.1 1010.5
16 19.08 СЗ 2 н/о н/о +31.0 +18.1 46 +35 +35 очень
душно
1015.7 1010.1
17 19.08 ЮЗ 1 н/о н/о +27.5 +19.6 62 +33 +33 очень
душно
1015.8 1010.2
18 19.08 Ю 1 30 км ясно +26.6 +20.5 69 +33 +33 очень
душно
1015.4 1009.8 +32.1
19 19.08 ЮВ 1 30 км ясно +25.7 +21.4 77 +33 +33 очень
душно
1015.7 1010.0
20 19.08 В 1 30 км ясно +24.5 +20.6 79 +30 +30 очень
душно
1015.7 1010.0
21 19.08 ЮВ 1 н/о н/о +24.4 +20.6 79 +30 +30 очень
душно
1016.5 1010.8
00 20.08 ЮВ 2 н/о н/о +23.6 +21.6 89 +30 +30 очень
душно
1016.5 1010.8

 

Местоположение метеостанции Макарска (Хорватия): широта 43.28 долгота 17.02 высота над уровнем моря 49 м.

В архиве по умолчанию представлена погода в Макарска за последнюю неделю. Архивные данные за месяц целиком и за предыдущие месяцы, начиная с января 2011 года, Вы можете получить, выбрав интересующий диапазон дат из раскрывающегося списка и нажав кнопку "Ввод!".


*Определитесь, кто Вы:
робот инопланетянин человек

Внимание! Время в таблицах - всемирное. Для получения местного времени необходимо прибавить поправку, которая равна 1 ч.

Смотрите также архив погоды в соседних городах и на ближайших метеорологических станциях:

Погода в Плоче (Хорватия) (43 км)
Погода в Хваре (Хорватия) (48 км)
Погода в Сплите (Хорватия) (55 км)
Погода в Ластово (Хорватия) (58 км)
Погода в Ливно (Босния и Герцеговина) (61 км)
Погода в Неуме (Босния и Герцеговина) (62 км)
Погода в Мостаре (Босния и Герцеговина) (64 км)
Погода в Сплит аэропорту (Хорватия) (64 км)
Погода в Комице (Хорватия) (79 км)
Погода в Бугойно (Босния и Герцеговина) (95 км)

Пояснения к столбцам:

Ветер - указаны скорость ветра в м/с - средняя за 10 мин, порывы в срок и между сроками (в фигурных скобках) и направление, откуда дует ветер: С - северный, СВ - северо-восточный, В - восточный, ЮВ - юго-восточный, Ю - южный, ЮЗ - юго-западный, З - западный, СЗ - северо-западный.
Видимость - горизонтальная дальность видимости в метрах или километрах. При видимости от 1 до 10 км при отсутствии осадков обычно наблюдается дымка, при ухудшении видимости до 1 км и менее - туман. В сухую погоду видимость может ухудшаться дымом, пылью или мглою.
Явления - указаны атмосферные явления, наблюдавшиеся в срок или в последний час перед сроком; фигурными скобками обозначены явления, наблюдавшиеся между сроками (за 1-3 часа до срока); квадратными скобками обозначены град или гололедные отложения с указанием их диаметра в мм.
Облачность - указаны через наклонную черту общая и нижняя облачность в баллах и высота нижней границы облаков в метрах; квадратными скобками обозначены формы облаков: Ci - перистые, Cs - перисто-слоистые, Cc - перисто-кучевые, Ac - высококучевые, As - высокослоистые, Sc - слоисто-кучевые, Ns - слоисто-дождевые, Cu - кучевые, Cb - кучево-дождевые. Подробнее классификацию облаков см. в Атласе облаков (PDF).
T - Температура воздуха - температура, измеренная на высоте 2 м над землей.
Td - Температура точки росы - температура, при понижении до которой содержащийся в воздухе водяной пар достигнет насыщения.
f - Относительная влажность воздуха - влажноcть воздуха, измеренная на высоте 2 м над землей.
Te - Эффективная температура - температура, которую ощущает одетый по сезону человек в тени. Характеристика душности погоды. При расчете учитывается влияние влажности воздуха и скорости ветра на теплоощущения человека.
Tes - Эффективная температура на солнце - температура, которую ощущает человек, с поправкой на солнечный нагрев. Характеристика знойности погоды. Зависит от высоты солнца над горизонтом, облачности и скорости ветра. Ночью, в пасмурную погоду, а также при ветре 12 м/с и более поправка равна нулю.
P - Атмосферное давление - приведенное к уровню моря атмосферное давление.
Po - Атмосферное давление - измеренное на уровне метеостанции атмосферное давление.
Tmin - Минимальная температура - минимум температуры воздуха на высоте 2 м над землей.
Tmax - Максимальная температура - максимум температуры воздуха на высоте 2 м над землей.
R - Количество осадков - Количество выпавших осадков за период времени, мм. При наведении курсора мыши на число - период времени, за который выпало указанное количество осадков.
R24 - Количество осадков - Количество выпавших осадков за 24 часа, мм.
S - Снежный покров - Высота снежного покрова, см. При наведении курсора мыши на число - состояние снежного покрова и степень покрытия местности в баллах.